Terug naar catalogus

ONEWEB-0133

ActiefCommunicatiePO
NORAD 47279·PAYLOAD·🇬🇧 United Kingdom

Gelanceerd Dec 18, 2020 vanaf Vostochny Cosmodrome

Loading…

Volgende Passages (komende 24 uur)

TLE

VersSource: CelesTrak SupGP

Epoch: Sep 14, 2026, 14:29 UTC

1 47279C 20100X   26257.60362685  .00003920  00000+0  10908-1 0  2579
2 47279  87.8998 332.9037 0001985  96.2932   5.6578 13.12441021    12

Volg ONEWEB-0133 in realtime met AllMySat

Download on the App Store